Location: Newark
(48.1281°N, 2.1556°W)
Time: 12:46:32
(UTC+00:00)

Envisat - Pass Details

Date: 27 November 2019
Orbit: 764 x 766 km, 98.1° (Epoch: 06 December)

Event Time Altitude Azimuth Distance (km) Brightness Sun altitude
Rises 06:01:31 0° 24° (NNE) 3,242 6.4 -14.7°
Reaches altitude 10° 06:04:17 10° 39° (NE) 2,311 5.8 -14.2°
Maximum altitude 06:08:21 24° 92° (E) 1,556 5.5 -13.6°
Drops below altitude 10° 06:12:24 10° 145° (SE) 2,297 6.3 -12.9°
Sets 06:15:07 0° 159° (SSE) 3,218 6.8 -12.5°
